Terminal Aerodrome Forecast
Issued by NWS Chicago, IL

Home | Current Version | Previous Version | Graphics & Text | Print | Product List | Glossary On
Versions: 1 2 3 4 5 6 7 8 9 10 11 12 13 14 15 16 17 18 19 20 21 22 23 24 25 26 27 28 29 30 31
000
FTUS43 KLOT 222300
TAFRFD
TAF
KRFD 222338Z 2300/2324 16005KT P6SM SKC
     FM230100 14004KT P6SM FEW250
     FM231500 19010KT P6SM BKN150
     FM231800 20009KT 6SM -SHRA BR OVC030=

USA.gov is the U.S. government's official web portal to all federal, state and local government web resources and services.